Погода в Тунгокочене

Погода в Тунгокочене : погода сейчас, прогноз погоды и архив. Всё, что Вы хотите узнать о погоде в Тунгокочене!

Хотите узнать прогноз погоды в Тунгокочене? Тогда Вам сюда: Погода в Тунгокочене

Поиск расширенной информации на нашем сайте:

Другие новости

Новости СМИ2

Главная страница сайта

Новости сайта

03.07.2017

Напоминаем, что на нашем специализированном сайте Метеоцентр.Азия вы можете получить высокодетализированные автоматические прогнозы погоды по пунктам России, СНГ и мира в авиационном формате (включающие направление и скорость ветра, видимость, явления погоды, количество и форму облачности, нижнюю и верхнюю границу облачности).

Рекомендуем: Как выбрать полотенцесушитель.

Погода в Тунгокочене - сегодня

Время (UTC), дата Ветер
(°,м/с) 
Видим.   Явления Облачность Т
(°С)
Тd
(°С)
f(%) Тe
(°С)
Pmin
(гПа)
dP
(гПа)
Po
(мм)
O2
(г/м3)
Тmin Tmax R s Состояние
почвы
21 20.04.18 тихо ()   20000 м    ясно 
-12.8 -14.9 84 -13  1031.4  1.4  696  296           
00 21.04.18 тихо ()   20000 м    3/0 верхняя 
[Ci fib]
-3.7 -11.7 54 -4  1028.6  0.8  697  286  -12.8        влажная 
03 21.04.18 250 (З) 20000 м    3/0 средняя, верхняя 
[Ac lent|Ci fib]
+6.5 -16.7 17 +7  1023.6  -1.2  696  275           
06 21.04.18 290 (З) 3{18}  20000 м    10/0 средняя, верхняя 
[Ac lent|Ci sp]
+10.4 -12.7 18 +10  1020.7  -1.2  695  271           
09 21.04.18 290 (З) 2{10}  20000 м    4/3 1000 м верхняя 
[Cu hum|Ci fib]
+11.2 -11.6 19 +11  1020  -0.4  695  270           
15 21.04.18 тихо ()   н/о    ясно 
-5.3 -8.6 78 -5  1028.4  1.6  696  287           
18 21.04.18 тихо ()   н/о    ясно 
-7.4 -9.5 85 -7  1030.5  1.1  697  290           
21 21.04.18 тихо ()   20000 м    1/0 верхняя 
[Ci fib]
-7.2 -7.7 96 -7  1031.7  0.9  698  289           
00 22.04.18 220 (ЮЗ) 20000 м    3/0 верхняя 
[Ci fib]
+1 -7.3 54 +2  1029.3  0.9  699  281  -8.2        влажная 
03 22.04.18 190 (Ю) 20000 м    3/0 верхняя 
[Ci fib]
+13.4 -8.3 21 +14  1023  -1.7  697  268           
06 22.04.18 280 (З) 4{12}  20000 м    3/1 1000 м верхняя 
[Cu hum|Ci fib]
+17 -10.1 15 +17  1019.4  -2.2  696  265           
09 22.04.18 200 (Ю) 4{10}  20000 м    10/1 1000 м средняя, верхняя 
[Cu hum|Ac lent|Ci fib]
+16.8 -11.2 14 +17  1017.4  -1.8  694  264           
15 22.04.18 тихо ()   н/о    3/0 верхняя 
[Ci fib]
-0.1 -7 60 -0  1024  0.7  695  281           
18 22.04.18 тихо ()   н/о    8/0 средняя, верхняя 
[Ac lent|Ci fib]
-3.3 -6.5 78 -3  1025.1  0.1  695  284           
21 22.04.18 350 (С) 20000 м    3/0 средняя 
[Ac lent]
-5.2 -7.4 84 -5  1025.7  0.1  695  286           
00 23.04.18 210 (ЮЗ) 20000 м    6/0 верхняя 
[Ci]
+7.3 -6.2 38 +7  1020.4  -0.7  694  273  -5.2        влажная 
09 23.04.18 280 (З) 4{14}  20000 м    10/1 1000 м средняя, верхняя 
[Cu hum|Ac lent|Cs]
+17.3 -9.5 15 +18  1011.3  -0.8  690  262           
12 23.04.18 290 (З) 1{10}  н/о    4/0 средняя 
[Ac lent]
+4.3 -5.7 48 +5  1015.5  -0.2  690  274    +18.5       
15 23.04.18 270 (З) н/о    6/0 верхняя 
[Ci fib]
-1.4 -5.8 72 -1  1018.6  0.9  691  280           
18 23.04.18 тихо ()   н/о    8/0 верхняя 
[Ci fib]
-3.6 -6.1 83 -4  1019.5  691  283           
21 23.04.18 тихо ()   20000 м    4/0 верхняя 
[Ci fib]
-5 -7.1 85 -5  1020.1  0.1  691  284           
00 24.04.18 тихо ()   20000 м    10/0 средняя, верхняя 
[As trans|Ci fib]
+5.4 -5.1 47 +5  1016.3  691  273  -5.1        влажная 
03 24.04.18 260 (З) 20000 м    10/3 1000 м верхняя 
[Cu hum|Ci fib]
+16.5 -3.9 24 +17  1010.1  -2.2  689  262           
09 24.04.18 290 (З) 1{12}  20000 м    10/1 1000 м средняя, верхняя 
[Cu hum|Ac lent|Ci ing]
+20.6 -6.7 15 +21  1001.6  -2.8  684  257           
15 24.04.18 230 (ЮЗ) 3{10}  н/о    10/0 средняя, верхняя 
[Ac lent|Ci fib]
+11 -4.9 32 +11  1002.5  -0.3  683  265           
Время (UTC), дата Ветер
(°,м/с) 
Видим.   Явления Облачность Т
(°С)
Тd
(°С)
f(%) Тe
(°С)
Pmin
(гПа)
dP
(гПа)
Po
(мм)
O2
(г/м3)
Тmin Tmax R s Состояние
почвы

Для получения пояснительной информации подведите курсор к названию столбца.

ПОГОДА в Тунгокочене - архив

Всё, что Вы хотите узнать о погоде в Тунгокочене - удобно и подробно!

Выберите нужную дату (начиная с 1 января 2015* года) и нажмите кнопку "Найти".
Будут отображены архивные сводки погоды по пункту Тунгокочен, начиная с указанной даты.


Отображать данные в формате CSV (для использования в таблицах Excel)


Внимание! Наш архив погоды предназначен исключительно для личного некоммерческого использования в познавательных целях. Если Вам необходимы официальные справки о состоянии погоды (для производственных, юридических, коммерческих и т.п. целей), обращайтесь в органы Росгидромета.

*Примечание: данная дата относится к архиву по метеостанциям СССР (Россия, СНГ, Балтия).
Архив по метеостанциям Зарубежной Европы и Азии (кроме Китая) хранится 10 дней, по другим регионам земного шара (Китай, Африка, Америка, Австралия, Океания) - 1 день.

Тунгокочен - район местоположения метеостанции


Название, широта, долгота, высота метеостанции:
Тунгокочен 53.5°ш. 115.6°д. 811 м над ур. моря [Российская Федерация]

Дополнительная информация

В oтличие oт бoльшинства пoгoдных сайтoв мы публикуем пoдрoбную метеoинфoрмацию в детальнoм прoфессиoнальнoм фoрмате.

Характеристики температуры и влажнoсти вoздуха измеряются на высoте 2 м в тени вдали oт зданий и деревьев.
Скoрoсть ветра измеряется на высoте 10 м (на урoвне рoста челoвека скoрoсть ветра ниже в 1.5-2 раза). Если метеoстанция нахoдится в гoрoде или в лесу, тo скoрoсть ветра занижена на 2-4 м/с пo сравнению с oткрытым местoм. Скoрoсть ветра над акватoриями крупных рек и oзёр, а также на вершинах хoлмoв на 2-5 м/с выше, чем в oбычных услoвиях.
Атмoсфернoе давление в разных тoчках местнoсти мoжет значительнo oтличаться oт давления на метеoстанции, в зависимoсти oт услoвий рельефа (при пoдъёме на 10 м давление пoнижается примернo на 1 мм рт.ст.).